Location: Unspecified
(0.0000°N, 0.0000°E)
Time: 21:04:37
(UTC+00:00)

Courier 1B Rocket - Pass Details

Date: 29 October 2021
Orbit: 920 x 1202 km, 28.2° (Epoch: 06 December)

Event Time Altitude Azimuth Distance (km) Brightness Sun altitude
Rises 18:57:02 0° 321° (NW) 3,577 8.3 -17.8°
Reaches altitude 10° 19:00:12 10° 335° (NNW) 2,612 7.4 -18.6°
Maximum altitude 19:05:06 24° 27° (NNE) 1,802 6.0 -19.7°
Enters shadow 19:05:26 24° 32° (NNE) 1,807 6.0 -19.8°
